Phnom Penh, Cambodia

9:46 PM +07 on February 25, 2018 (GMT +0700)
Pochentong International

Weather History for VDPP - May, 2013

Change the Weather History Date:

Tuesday, May 28, 2013

  Actual Average Record
Temperature  
Mean Temperature 90 °F -  
Max Temperature 100 °F 89 °F 100 °F (2013)
Min Temperature 81 °F 77 °F 76 °F (2016)
Cooling Degree Days 26    
Growing Degree Days 40 (Base 50)    
Moisture  
Dew Point 70 °F    
Average Humidity 52    
Maximum Humidity 78    
Minimum Humidity 31    
Precipitation  
Precipitation 0.00 in - - ()
Sea Level Pressure  
Sea Level Pressure 29.74 in    
Wind  
Wind Speed 6 mph ()    
Max Wind Speed 14 mph    
Max Gust Speed -    
Visibility 5.9 miles    
Events      
Averages and records for this station are not official NWS values.
T = Trace of Precipitation, MM = Missing Value Source: Averaged Metar Reports

Daily Weather History Graph

Daily Weather History Graph

Search for Another Location

Airport or City:

Trip Planner

Search our weather history database for the weather conditions in past years. The results will help you decide how hot, cold, wet, or windy it might be!

Date:

Astronomy

May. 28, 2013 Rise Set
Actual Time 5:35 AM +07 6:20 PM +07
Civil Twilight 5:12 AM +07 6:42 PM +07
Nautical Twilight 4:46 AM +07 7:09 PM +07
Astronomical Twilight 4:18 AM +07 7:37 PM +07
Moon 9:36 PM +07 (5/28) 8:35 AM +07 (5/28)
Length of Visible Light 13h 30m
Length of Day
12h 44m
Waning Gibbous, 87% of the Moon is Illuminated
May 28
Waning Gibbous
Jun 1
Last Quarter
Jun 8
New
Jun 17
First Quarter
Jun 23
Full

Hourly Weather History & Observations

Time (+07) Temp. Heat Index Dew Point Humidity Pressure Visibility Wind Dir Wind Speed Gust Speed Precip Events Conditions
12:00 AM 86.0 °F 95.1 °F 75.2 °F 70% 29.74 in 6.2 mi WSW 6.9 mph - N/A   Scattered Clouds
12:30 AM 86.0 °F 95.1 °F 75.2 °F 70% 29.71 in 6.2 mi WSW 4.6 mph - N/A   Partly Cloudy
1:00 AM 86.0 °F 95.1 °F 75.2 °F 70% 29.71 in 6.2 mi SW 4.6 mph - N/A   Partly Cloudy
6:00 AM 84.2 °F 90.9 °F 73.4 °F 70% 29.74 in 5.6 mi West 5.8 mph - N/A   Unknown
6:30 AM 84.2 °F 89.6 °F 71.6 °F 66% 29.74 in 5.6 mi West 5.8 mph - N/A   Unknown
7:00 AM 82 °F - 76 °F 78% 29.81 in 6 mi South 4.5 mph - -   Partly Cloudy
7:00 AM 86.0 °F 91.8 °F 71.6 °F 62% 29.77 in 6.2 mi WSW 6.9 mph - N/A   Partly Cloudy
7:30 AM 87.8 °F 93.8 °F 71.6 °F 58% 29.77 in 6.2 mi West 9.2 mph - N/A   Partly Cloudy
8:00 AM 89.6 °F 96.2 °F 71.6 °F 55% 29.77 in 6.2 mi West 10.4 mph - N/A   Partly Cloudy
8:30 AM 89.6 °F 94.7 °F 69.8 °F 52% 29.77 in 6.2 mi West 10.4 mph - N/A   Partly Cloudy
9:00 AM 91.4 °F 96.8 °F 69.8 °F 49% 29.77 in 6.2 mi West 5.8 mph - N/A   Partly Cloudy
9:30 AM 91.4 °F 95.4 °F 68.0 °F 46% 29.77 in 6.2 mi West 9.2 mph - N/A   Partly Cloudy
10:00 AM 93.2 °F 97.7 °F 68.0 °F 44% 29.77 in 6.2 mi West 9.2 mph - N/A   Partly Cloudy
10:30 AM 95.0 °F 99.5 °F 68.0 °F 41% 29.77 in 6.2 mi West 6.9 mph - N/A   Partly Cloudy
11:00 AM 95.0 °F 99.5 °F 68.0 °F 41% 29.77 in 6.2 mi NW 5.8 mph - N/A   Partly Cloudy
11:30 AM 96.8 °F 100.7 °F 66.2 °F 37% 29.77 in 6.2 mi South 3.5 mph - N/A   Partly Cloudy
12:00 PM 96.8 °F 100.7 °F 66.2 °F 37% 29.74 in 6.2 mi East 5.8 mph - N/A   Partly Cloudy
12:30 PM 98.6 °F 102.8 °F 66.2 °F 35% 29.74 in 6.2 mi SSW 5.8 mph - N/A   Partly Cloudy
1:00 PM 98.6 °F 101.0 °F 64.4 °F 32% 29.74 in 6.2 mi SW 10.4 mph - N/A   Partly Cloudy
1:30 PM 98.6 °F 102.8 °F 66.2 °F 35% 29.71 in 6.2 mi SW 10.4 mph - N/A   Partly Cloudy
2:00 PM 98.6 °F 101.0 °F 64.4 °F 32% 29.68 in 6.2 mi SW 9.2 mph - N/A   Partly Cloudy
2:30 PM 100.4 °F 103.6 °F 64.4 °F 31% 29.68 in 6.2 mi SE 6.9 mph - N/A   Partly Cloudy
3:30 PM 93.2 °F 100.5 °F 71.6 °F 49% 29.68 in 6.2 mi NNW 13.8 mph - N/A   Partly Cloudy
4:00 PM 93.2 °F 98.8 °F 69.8 °F 46% 29.68 in 5.6 mi NNW 10.4 mph - N/A   Scattered Clouds
4:30 PM 93.2 °F 97.7 °F 68.0 °F 44% 29.71 in 5.6 mi North 4.6 mph - N/A   Scattered Clouds
5:00 PM 93.2 °F 97.7 °F 68.0 °F 44% 29.68 in 5.6 mi NNW 4.6 mph - N/A   Scattered Clouds
5:30 PM 93.2 °F 98.8 °F 69.8 °F 46% 29.68 in 5.6 mi West 6.9 mph - N/A   Scattered Clouds
6:00 PM 89.6 °F 93.4 °F 68.0 °F 49% 29.68 in 5.6 mi West 11.5 mph - N/A   Mostly Cloudy
6:30 PM 89.6 °F 94.7 °F 69.8 °F 52% 29.71 in 5.6 mi Variable 3.5 mph - N/A   Mostly Cloudy
7:00 PM 89.6 °F 94.7 °F 69.8 °F 52% 29.71 in 5.6 mi Variable 1.2 mph - N/A   Mostly Cloudy
7:30 PM 91.4 °F 96.8 °F 69.8 °F 49% 29.74 in 5.6 mi West 4.6 mph - N/A   Scattered Clouds
8:30 PM 87.8 °F 93.8 °F 71.6 °F 58% 29.74 in 5.6 mi SSE 4.6 mph - N/A   Scattered Clouds
9:00 PM 87.8 °F 93.8 °F 71.6 °F 58% 29.74 in 5.6 mi SSE 4.6 mph - N/A   Scattered Clouds
9:30 PM 87.8 °F 95.6 °F 73.4 °F 62% 29.77 in 5.6 mi SSE 3.5 mph - N/A   Scattered Clouds
10:00 PM 87.8 °F 95.6 °F 73.4 °F 62% 29.77 in 5.6 mi SSE 3.5 mph - N/A   Scattered Clouds
10:30 PM 87.8 °F 95.6 °F 73.4 °F 62% 29.77 in 5.6 mi Calm Calm - N/A   Scattered Clouds
11:00 PM 87.8 °F 95.6 °F 73.4 °F 62% 29.77 in 5.6 mi Calm Calm - N/A   Scattered Clouds
11:30 PM 87.8 °F 95.6 °F 73.4 °F 62% 29.77 in 5.6 mi NNW 3.5 mph - N/A   Scattered Clouds